Regional Weather Roundup
Issued by NWS

Home | Current Version | Previous Version | Text Only | Print | Product List | Glossary Off
Versions: 1 2 3 4 5 6 7 8 9 10 11 12 13 14 15 16 17 18 19 20 21 22 23 24 25 26 27 28 29 30 31 32 33 34 35 36 37 38 39 40 41 42 43 44 45 46 47 48 49 50

000
ASUS43 KTOP 222059
RWRKS

WEATHER ROUNDUP FOR KANSAS
NATIONAL WEATHER SERVICE GOODLAND KS
400 PM CDT FRI MAY 22 2015

NOTE:  "FAIR" INDICATES FEW OR NO CLOUDS BELOW 12,000 FEET WITH NO
SIGNIFICANT WEATHER AND/OR OBSTRUCTIONS TO VISIBILITY.

KSZ001>006-013>018-027>032-041>047-222200-
NORTHWEST KANSAS

CITY           SKY/WX    TMP DP  RH WIND       PRES   REMARKS
GOODLAND       CLOUDY    54  51  90 SE21G29   30.02F
HAYS           CLOUDY    57  46  67 SE10      30.12F
HILL CITY      CLOUDY    54  49  83 SE13      30.11F
RUSSELL        CLOUDY    56  51  84 SE12      30.12F
$$

KSZ061>065-074>080-084>089-222200-
SOUTHWEST KANSAS

CITY           SKY/WX    TMP DP  RH WIND       PRES   REMARKS
DODGE CITY     CLOUDY    56  51  84 S17G25    30.10S
ELKHART          N/A     64  49  58 S17         N/A
GARDEN CITY    CLOUDY    54  52  93 S16G25    30.05F
GREAT BEND     CLOUDY    57  52  82 SE22      30.12F
LIBERAL        CLOUDY    57  52  82 S16       30.08S
$$

KSZ066>073-081>083-090>101-222200-
SOUTHEAST KANSAS

CITY           SKY/WX    TMP DP  RH WIND       PRES   REMARKS
CHANUTE        CLOUDY    63  48  58 SE12      30.21F
COFFEYVILLE    CLOUDY    63  51  65 SE8       30.20S
HUTCHINSON     CLOUDY    58  53  84 S12       30.17S
NEWTON         CLOUDY    59  50  72 SE12      30.19F
PARSONS        CLOUDY    64  52  64 CALM      30.21F
WICHITA INTL   CLOUDY    60  55  83 SE12      30.16F
WICHITA JABRA  CLOUDY    61  55  81 SE12      30.17F
WICHITA MCCONL CLOUDY    61  55  82 SE10      30.17F
WINFIELD       CLOUDY    62  54  74 SE15      30.18F
$$

KSZ007>012-019>026-033>040-048>060-102>105-222200-
NORTHEAST KANSAS

CITY           SKY/WX    TMP DP  RH WIND       PRES   REMARKS
CONCORDIA      CLOUDY    58  49  72 SE12      30.17F
EMPORIA        CLOUDY    61  50  67 E5        30.19F
LAWRENCE       CLOUDY    63  46  54 SE10      30.23F
MANHATTAN      CLOUDY    66  50  56 SE10      30.19F
OLATHE IND     CLOUDY    63  48  58 SE8       30.24S
OLATHE EXE     CLOUDY    62  49  62 S8        30.23R
SALINA         CLOUDY    58  55  90 SE8       30.18F FOG
TOPEKA BILLARD CLOUDY    63  47  55 SE10      30.22F
TOPEKA FORBES  CLOUDY    64  45  49 S9        30.22S
$$


USA.gov is the U.S. government's official web portal to all federal, state and local government web resources and services.